Starlink 31931

operational
NORAD ID: 59864 Int'l Des: 2024-098 Owner: SPXS Country: US Constellation: starlink
LEOCIRCULAR

About Starlink 31931

Description loading...

Live Position

Loading 3D Globe...

Upcoming Passes

Altitude History

Altitude vs Time

uPlot chart will show altitude changes over time

Two-Line Element Set

1 59864U 24098G 26020.18133565 .00002095 00000-0 85604-4 0 9990
2 59864 43.0031 192.2721 0001169 267.6721 92.3997 15.27585427 94421
Epoch: Jan 20, 2026 • Age: 26 hours

Current Status

Altitude 485.6 km
Velocity 7.63 km/s
Sub-Earth Point 36.95°N, 102.64°E
Launch Date May 24, 2024
Age 1.6 years
Type internet

Technical Details

Classification Payload
Mass 730.00 kg
Dry Mass 700.00 kg
Total Mass 730.00 kg
Length 0.30 m
Diameter 4.10 m
Span 29.00 m
Shape Box + pan
Manufacturer SPXS
Bus Type Starlink V2M
Phase Status In Orbit
Owner/State SPXS/US

Large Constellations

Loading constellations...